Regional Weather Roundup
Issued by NWS

Home | Current Version | Previous Version | Graphics & Text | Print | Product List | Glossary Off
Versions: 1 2 3 4 5 6 7 8 9 10 11 12 13 14 15 16 17 18 19 20 21 22 23 24 25 26 27 28 29 30 31 32 33 34 35 36 37 38 39 40 41 42 43 44 45 46 47 48 49 50

000
ASUS43 KDMX 281206
RWRIA

WEATHER ROUNDUP FOR IOWA
NATIONAL WEATHER SERVICE DES MOINES IA
700 AM CDT WED JUN 28 2017

NOTE: "FAIR" INDICATES FEW OR NO CLOUDS BELOW 12,000 FEET WITH NO
SIGNIFICANT WEATHER AND/OR OBSTRUCTIONS TO VISIBILITY.

* - THESE STATIONS ARE NOT NWS STATIONS...THUS NOT UNDER NWS
QUALITY CONTROL.  THEY ALSO DO NOT REPORT WEATHER SUCH
AS PRECIPITATION OR FOG.

IAZ001>003-012>014-020>022-031>034-043>046-281300-
   NORTHWEST IOWA

CITY           SKY/WX    TMP DP  RH WIND       PRES   REMARKS
CARROLL *      CLOUDY    68  63  83 SW15G24   29.72R
CHEROKEE *     PTSUNNY   65  65 100 S10       29.69R
DENISON *      CLOUDY    66  63  88 S17G29    29.72S
LE MARS *      CLOUDY    66  64  94 S13       29.68R
ORANGE CITY *  CLOUDY    64  64 100 S14       29.67R
SHELDON *      PTSUNNY   66  63  88 S14       29.64R
SIOUX CITY     MOSUNNY   67  63  87 S7        29.69R
6HR MIN TEMP:  65; 6HR MAX TEMP:  76; 6HR PCP:  0.29;

SPENCER        CLOUDY    67  64  90 SW13      29.66R
6HR MIN TEMP:  64; 6HR MAX TEMP:  70; 6HR PCP:  0.81;

STORM LAKE *   CLOUDY    64  63  94 S8        29.70R
$$

IAZ055>058-069>071-079>083-090>094-281300-
   SOUTHWEST IOWA

CITY           SKY/WX    TMP DP  RH WIND       PRES   REMARKS
ATLANTIC *     CLOUDY    66  64  94 S9        29.74F
AUDUBON *      CLOUDY    64  63  94 S14       29.75F
CLARINDA *     CLOUDY    68  63  83 S9G15     29.75F
COUNCIL BLFS * PTSUNNY   66  66 100 S16       29.71F
CRESTON *      CLOUDY    64  64 100 S15G22    29.81F
HARLAN  *      CLOUDY    64  64 100 S13       29.75F
LAMONI         TSTM      66  63  90 SW6       29.90S
6HR MIN TEMP:  66; 6HR MAX TEMP:  72; 6HR PCP:  0.16;

RED OAK *      CLOUDY    64  63  94 S9G16     29.75F
SHENANDOAH *   CLOUDY    66  63  88 E6        29.75F
$$

IAZ047>049-059>061-072>074-084-281300-
   CENTRAL IOWA

CITY           SKY/WX    TMP DP  RH WIND       PRES   REMARKS
AMES           LGT RAIN  66  65  96 S14       29.67F
6HR MIN TEMP:  66; 6HR MAX TEMP:  72; 6HR PCP:  0.38;

ANKENY *       LGT RAIN  66  64  94 S14G24    29.75F
BOONE *        CLOUDY    68  61  77 SW15G22   29.70F
CHARITON *     LGT RAIN  68  64  88 SW12      29.87R
DES MOINES     LGT RAIN  68  65  90 SW12      29.77F
6HR MIN TEMP:  68; 6HR MAX TEMP:  75; 6HR PCP:  0.08;

GRINNELL*      LGT RAIN  69  64  85 SW15G21   29.80F
KNOXVILLE *    LGT RAIN  70  64  83 SW13G22   29.81F
MARSHALLTOWN   CLOUDY    68  65  90 SW18G26   29.74R
6HR MIN TEMP:  66; 6HR MAX TEMP:  70; 6HR PCP: TRACE;

NEWTON *       CLOUDY    68  64  88 SW26G40   29.75F FOG
PELLA *        LGT RAIN  71  63  78 SW15G23   29.82S
PERRY *          N/A     67  64  92 S21       29.75S
$$

IAZ004>006-015-016-023>025-035-036-281300-
   NORTH CENTRAL IOWA

CITY           SKY/WX    TMP DP  RH WIND       PRES   REMARKS
ALGONA *       PTSUNNY   66  66 100 S14G22    29.67F
CLARION *        N/A     66  66 100 SW10      29.67F
ESTHERVILLE    CLOUDY    66  65  96 SW22G30   29.65R
6HR MIN TEMP:  64; 6HR MAX TEMP:  70; 6HR PCP:  0.98;

FORT DODGE *   CLOUDY    66  63  88 SW7       29.71R
MASON CITY     LGT RAIN  68  64  87 SW15G26   29.68F
6HR MIN TEMP:  63; 6HR MAX TEMP:  70; 6HR PCP:  0.06;

FOREST CITY *  PTSUNNY   68  61  77 SW21G28   29.67R
WEBSTER CITY * CLOUDY    66  63  88 W9G17     29.65F
IOWA FALLS *   LGT RAIN  69  60  71 S28G40    29.66F
$$

IAZ007>011-017>019-026>030-037>042-050>054-066-281300-
   NORTHEAST IOWA

CITY           SKY/WX    TMP DP  RH WIND       PRES   REMARKS
CEDAR RAPIDS   RAIN      64  64 100 SE10      29.84S FOG
6HR MIN TEMP:  62; 6HR MAX TEMP:  68; 6HR PCP:  0.66;

CHARLES CITY * CLOUDY    63  63 100 SE14      29.74R
CLINTON *      LGT RAIN  64  59  83 S15       29.91R
DECORAH *      CLOUDY    64  63  94 SE8G16    29.78F
DUBUQUE        LGT RAIN  62  58  86 SW10      29.90R
6HR MIN TEMP:  59; 6HR MAX TEMP:  64; 6HR PCP:  0.04;

MONTICELLO *   HVY RAIN  64  63  94 W6G16     29.90R
OELWEIN *      CLOUDY    66  64  94 S20       29.80F
WATERLOO       CLOUDY    67  61  81 SE13      29.75R
6HR MIN TEMP:  62; 6HR MAX TEMP:  67; 6HR PCP:  0.15;

$$

IAZ064-065-067-068-078-281300-
   EAST CENTRAL IOWA

CITY           SKY/WX    TMP DP  RH WIND       PRES   REMARKS
IOWA CITY      HVY RAIN  66  63  90 S7        29.89R FOG
6HR MIN TEMP:  66; 6HR MAX TEMP:  69; 6HR PCP:  0.68;

MT. PLEASANT * RAIN      69  61  77 S13G20    29.88R
MUSCATINE *    CLOUDY    66  63  88 S8G16     29.88R FOG
QUAD CITIES    LGT RAIN  67  58  72 SW8       29.90R
6HR MIN TEMP:  59; 6HR MAX TEMP:  68; 6HR PCP:  0.01;

$$

IAZ062-063-075>077-085>089-095>099-281300-
   SOUTHEAST IOWA

CITY           SKY/WX    TMP DP  RH WIND       PRES   REMARKS
BURLINGTON     CLOUDY    68  62  81 S14       29.88S
6HR MIN TEMP:  66; 6HR MAX TEMP:  69;

FAIRFIELD *    CLOUDY    70  63  78 S13G20    29.85R
FORT MADISON * CLOUDY    72  63  73 S18       29.88F
KEOKUK *       CLOUDY    70  63  78 S15G23    29.88S
OSKALOOSA *    CLOUDY    70  64  83 SW15G21   29.84R
CENTERVILLE *  PTSUNNY   70  64  83 SW10G18   29.90R
OTTUMWA        CLOUDY    73  64  73 SW14G25   29.84S
6HR MIN TEMP:  68; 6HR MAX TEMP:  73;

WASHINGTON *   CLOUDY    66  64  94 SW7       29.87R
$$

ABBREVIATIONS USED IN REMARKS
   TC - TEMPERATURES IN CELSIUS
  WCI - WIND CHILL INDEX
   HX - HEAT INDEX
  VSB - VISIBILITY
$$





USA.gov is the U.S. government's official web portal to all federal, state and local government web resources and services.